Location: Unspecified
(34.5034°N, 0.0000°E)
Time: 05:19:44
(UTC+00:00)

deb Atmosphere 2 - Visible Passes

Search period start: 04 April 2026 00:00
Search period end: 14 April 2026 00:00
Orbit: 813 x 825 km, 98.8° (Epoch: 28 March)

Date Brightness Start Highest point End Pass type
(mag) Time Alt. Az. Time Alt. Az. Time Alt. Az.
4 Apr ? 04:26:18 10° NNE 04:31:18 41° E 04:36:17 10° S visible
5 Apr ? 04:05:36 10° NE 04:09:57 25° E 04:14:17 10° SSE visible
6 Apr ? 03:45:28 10° ENE 03:48:32 15° E 03:51:36 10° SE visible
7 Apr ? 05:02:18 10° NNE 05:07:39 87° WNW 05:12:58 10° SSW visible
8 Apr ? 04:41:09 10° NNE 04:46:24 58° E 04:51:37 10° S visible
9 Apr ? 04:20:14 10° NNE 04:25:05 35° E 04:29:54 10° SSE visible
10 Apr ? 03:59:39 10° NE 04:03:42 22° E 04:07:44 10° SE visible
11 Apr ? 03:39:50 10° ENE 03:42:16 13° E 03:44:41 10° ESE visible
12 Apr ? 04:56:06 10° NNE 05:01:26 82° ESE 05:06:45 10° S visible
13 Apr ? 04:35:00 10° NNE 04:40:09 50° E 04:45:17 10° S visible
